Vorticity
28 26 22 13 3 -0 2 9 16 20 24 25 26 27 27 27 25 22 19 15 13 12 12 13 15 18 22 26 26 22 17 11 6 3 1 1 2 2 3 4 4 4 4 5 5 6 8 10 13 16 18 20 21 21 21 20 20 19 18 16 13 10 8 6 5 4 4 5 5
29 28 25 18 9 3 2 7 14 19 22 24 26 27 28 27 26 24 20 16 14 12 12 13 15 18 22 26 26 23 18 12 7 4 1 0 1 2 3 3 3 3 4 4 5 6 7 8 11 14 17 20 20 21 21 20 20 19 18 16 13 10 8 6 4 4 4 5 2
31 30 27 23 16 10 8 10 15 19 22 24 26 27 28 27 26 24 21 17 14 13 12 13 15 18 22 26 27 24 19 13 8 4 1 0 1 1 2 2 2 2 3 4 4 5 6 7 10 13 16 19 20 21 21 21 20 19 18 16 13 10 8 5 4 4 4 2 -7
31 31 29 27 23 19 16 17 18 20 22 24 27 28 29 29 27 24 22 18 15 13 12 13 15 18 22 25 27 25 20 13 8 4 1 -0 0 1 1 1 1 2 2 3 4 4 5 6 9 12 15 18 20 21 22 22 20 19 18 16 13 10 7 5 5 5 3 -3 -13
28 30 30 30 28 26 24 22 20 20 20 22 27 29 31 30 28 25 22 18 15 13 13 13 15 18 21 25 27 26 21 14 9 4 1 -0 -0 -0 0 -0 0 1 2 3 4 4 5 6 8 10 14 17 20 21 22 22 21 20 18 15 13 10 7 5 5 4 2 -4 -7
22 25 28 30 30 29 27 23 19 16 16 18 24 29 32 33 30 26 22 19 16 14 13 13 15 18 21 26 28 26 21 14 9 5 1 -1 -1 -1 -1 -1 -1 0 2 3 4 4 5 5 7 9 13 17 20 22 23 23 22 20 18 15 12 9 7 5 5 4 2 -1 -0
19 21 24 27 28 28 25 21 15 11 10 12 19 26 32 35 32 28 24 20 17 14 13 13 15 18 21 26 28 27 22 14 9 5 1 -1 -1 -2 -2 -2 -1 0 2 3 3 4 4 5 6 9 12 16 20 22 24 23 22 20 17 14 11 8 7 6 5 4 3 2 3
21 20 21 23 24 24 22 17 10 6 5 7 14 22 30 35 34 31 26 21 17 14 13 13 14 18 22 26 29 27 21 14 10 5 2 -1 -2 -2 -2 -2 -1 0 2 3 3 4 4 4 6 8 11 16 20 23 24 24 22 20 17 13 11 8 7 6 5 4 4 4 4
26 25 23 22 22 22 18 13 6 2 2 4 10 19 27 35 36 32 27 21 17 14 12 12 14 18 22 27 29 27 21 14 10 6 2 -1 -2 -2 -3 -2 -1 1 2 3 3 3 4 4 5 7 11 16 20 23 25 24 22 19 16 13 10 8 6 5 4 4 4 5 3
30 30 30 28 26 22 17 10 4 2 2 4 9 17 26 34 36 33 27 21 16 13 11 11 14 18 23 28 29 26 20 14 11 7 3 0 -1 -2 -2 -1 0 2 3 3 3 3 4 4 5 7 11 16 20 24 25 24 22 19 16 12 10 7 5 3 3 4 4 3 -1
31 32 33 34 32 27 20 11 6 4 5 6 9 16 25 34 36 32 27 20 15 11 10 12 15 19 24 27 28 25 20 15 12 8 5 2 -0 -1 -1 -0 1 2 3 3 3 3 4 4 5 7 11 16 21 24 25 23 20 18 16 11 8 5 4 2 3 4 3 -1 -8
31 32 34 37 37 33 26 16 12 9 8 8 10 17 25 34 35 31 25 18 13 11 11 12 16 20 24 27 27 24 20 16 13 10 6 3 2 1 1 1 2 3 3 2 3 3 4 4 5 7 11 16 21 24 24 20 19 18 15 9 6 4 3 3 5 5 3 -6 -13
33 32 32 36 41 39 34 25 18 13 10 9 12 18 26 34 34 29 22 15 12 11 11 14 18 21 24 26 25 23 20 17 14 11 8 5 3 3 3 3 3 3 3 3 3 4 4 5 5 7 11 16 21 24 23 18 19 17 13 7 4 3 3 5 6 6 1 -10 -14
34 32 32 36 41 42 38 29 21 15 12 10 13 20 28 33 31 26 19 14 12 12 13 16 19 21 23 25 24 22 19 17 15 12 9 7 5 5 4 4 4 4 3 3 4 4 5 5 5 8 11 16 21 24 24 19 20 16 10 5 4 4 5 6 6 3 -3 -11 -10
34 33 33 36 40 39 34 27 20 16 13 12 17 23 29 32 28 23 18 14 13 13 15 18 20 22 23 25 24 22 19 17 16 13 11 8 7 6 6 5 5 4 4 4 5 5 5 5 6 8 12 16 22 25 26 22 18 13 8 4 4 4 4 4 2 -2 -5 -7 -4
35 35 36 38 38 36 31 25 20 16 14 15 21 27 30 29 25 20 16 14 14 16 18 20 21 22 24 25 24 21 18 17 15 13 11 9 8 7 6 6 6 5 6 6 6 6 6 5 7 9 13 17 22 26 27 22 15 9 6 5 3 0 -1 -2 -1 -0 0 0 2
37 38 38 38 37 33 29 23 19 16 17 21 27 29 28 26 22 18 16 15 16 18 20 21 22 23 24 25 22 20 18 16 15 13 11 10 9 8 7 6 6 6 7 7 7 6 6 6 8 11 15 19 24 27 26 20 12 8 6 5 0 -6 -9 -6 2 8 10 8 6
37 37 37 35 32 29 25 21 19 20 24 28 29 28 25 22 19 17 16 17 18 20 21 22 23 24 24 24 21 19 17 15 13 12 11 10 9 8 7 7 7 8 8 8 8 6 6 6 9 13 17 22 26 26 23 17 10 7 6 4 -5 -12 -13 -3 9 16 16 12 9
33 33 32 30 28 25 24 23 24 26 28 28 27 24 21 19 18 17 17 18 19 20 22 24 24 24 23 21 19 18 16 14 13 11 11 10 9 8 8 8 8 9 9 9 7 6 6 7 10 14 18 24 27 25 20 13 9 7 4 -1 -12 -15 -10 5 13 16 15 11 9
29 29 29 28 27 27 27 27 28 27 26 24 22 20 18 17 16 17 18 19 20 22 24 25 24 23 21 19 17 16 15 14 12 11 11 10 10 9 9 9 10 10 9 7 6 6 7 9 12 16 21 25 26 22 17 10 8 6 1 -8 -14 -10 -1 9 12 11 10 9 9
26 26 27 27 26 26 26 25 24 22 21 19 18 17 16 16 16 17 18 21 23 24 25 24 22 20 18 16 16 15 14 13 13 12 11 10 10 10 10 10 10 9 8 6 5 6 9 13 16 20 23 26 24 20 15 10 7 3 -3 -11 -10 -4 4 8 8 7 6 7 7
25 25 25 24 24 23 22 21 20 18 17 17 16 16 16 16 18 20 22 25 26 26 24 21 19 17 16 15 15 14 14 13 13 12 11 11 11 11 11 10 9 7 6 5 6 9 13 16 20 22 24 24 21 17 13 9 6 1 -5 -9 -5 0 5 7 6 5 5 6 6
24 24 24 23 22 22 21 20 19 18 18 17 18 18 19 21 23 25 27 28 26 23 20 17 16 15 14 14 14 14 13 13 12 12 11 11 11 10 10 9 7 5 5 6 9 13 17 19 22 24 24 22 19 15 12 8 4 -1 -6 -7 -2 2 5 6 5 5 5 5 6
18 19 20 20 20 19 19 19 19 19 19 20 21 23 25 27 28 28 27 24 21 18 16 15 14 13 13 13 13 13 12 12 12 11 11 11 10 9 7 6 4 5 7 10 15 18 20 21 24 24 23 20 17 14 10 7 2 -2 -5 -4 1 4 5 6 5 5 6 6 7
12 14 15 16 17 17 18 18 19 21 23 25 27 29 30 30 27 25 22 19 16 15 14 13 13 12 12 12 12 12 11 11 11 10 10 9 7 6 5 4 6 9 13 17 20 22 22 23 24 24 22 18 14 10 7 4 -0 -3 -3 -1 3 5 6 6 6 6 7 7 7
15 17 19 20 22 22 23 24 26 28 29 30 30 29 27 24 21 18 16 14 13 12 12 12 11 11 11 11 11 11 10 10 9 8 7 6 5 5 5 7 12 16 20 23 23 23 22 22 22 20 17 14 10 7 4 1 -1 -1 1 3 5 6 6 7 7 7 7 7 7
27 28 30 31 32 32 32 32 31 30 29 27 24 21 19 16 14 13 12 11 11 10 10 10 10 10 10 10 9 9 8 7 6 6 5 5 6 8 11 16 20 23 25 24 23 21 19 17 16 13 11 9 6 4 4 3 3 4 5 6 7 7 8 8 8 7 6 6 7
34 35 35 36 35 33 31 28 25 22 20 17 15 13 11 11 10 10 10 10 10 9 9 9 9 9 9 8 7 6 6 5 5 5 6 7 11 15 20 24 27 27 25 22 19 17 15 14 12 10 7 5 5 5 6 6 7 7 7 7 8 9 9 8 7 6 6 5 6
30 30 29 28 25 22 20 17 15 13 11 10 9 9 9 8 8 8 8 9 8 8 8 8 8 7 6 6 5 5 5 5 5 7 10 14 19 23 26 27 24 20 16 14 16 20 20 16 11 8 6 5 6 6 7 8 7 5 4 4 8 10 10 8 7 8 8 7 7
19 18 17 15 14 12 11 10 9 8 8 8 8 8 8 8 8 7 7 7 6 6 6 7 6 5 5 5 5 6 6 7 9 13 17 22 25 25 21 15 7 2 1 5 13 20 24 19 12 8 6 6 7 8 7 6 1 -3 -3 2 9 11 12 11 13 14 13 11 7
12 11 10 10 9 9 9 8 8 7 7 7 7 7 7 6 6 6 5 5 5 5 5 5 5 5 5 6 7 8 10 13 17 21 24 25 20 13 4 -4 -8 -5 1 10 13 18 22 19 13 9 7 8 8 7 4 -1 -5 -1 7 15 16 16 18 19 20 19 15 10 3
10 9 9 9 9 9 8 8 7 7 7 6 6 5 5 5 4 4 4 4 4 5 5 5 6 7 8 9 10 13 16 20 23 23 19 11 1 -6 -8 -6 0 7 13 17 18 22 23 17 11 9 8 8 7 5 2 -2 4 14 22 22 19 18 18 17 16 13 8 2 -4
9 9 8 8 8 8 7 7 6 6 5 5 4 4 4 4 4 4 4 4 5 6 7 8 9 11 13 14 16 19 21 23 20 12 1 -13 -16 -12 -2 10 18 20 20 21 23 22 19 12 9 8 8 8 8 7 9 13 22 25 24 19 14 10 9 11 15 16 16 15 13
7 6 6 6 6 5 5 4 4 4 4 3 3 3 3 4 4 5 6 7 8 9 11 11 13 16 18 20 22 23 22 20 11 -3 -16 -26 -16 -1 14 27 28 24 21 20 18 13 9 7 8 10 12 14 16 19 22 25 23 18 12 5 2 4 9 16 22 27 31 35 37
4 4 4 4 4 3 3 3 3 3 3 3 4 4 5 6 7 8 9 11 12 13 15 17 18 20 22 23 23 22 20 15 3 -10 -21 -26 -8 10 25 37 28 21 15 11 6 4 6 9 12 15 18 21 22 20 17 12 5 -0 -4 -5 0 7 12 14 15 17 19 20 21
3 3 3 3 3 3 3 4 4 4 5 6 7 8 9 10 11 12 14 15 16 17 18 20 21 21 21 21 21 19 16 10 1 -11 -21 -25 -4 16 28 30 20 14 11 6 6 10 15 17 18 18 18 17 11 5 0 -3 -3 -2 -0 3 8 10 9 6 6 5 5 4 3
4 4 4 4 5 5 5 6 6 7 8 9 10 12 13 15 16 17 18 18 18 19 19 20 20 19 18 17 17 15 13 8 -1 -12 -19 -17 4 18 21 11 15 24 30 23 20 19 18 16 15 12 7 1 -4 -4 -0 8 12 12 11 11 10 7 4 2 1 -0 -2 -4 -3
6 6 6 7 7 8 8 9 9 10 11 12 14 16 18 19 20 20 19 18 18 18 17 17 16 14 12 11 10 9 8 5 -2 -10 -14 -5 10 15 8 -8 13 34 46 37 25 16 11 8 5 -0 -5 -10 -6 3 13 21 18 13 9 7 5 3 1 -0 -2 -4 -5 -5 -0
9 9 10 10 10 11 11 12 12 13 14 15 17 18 19 19 19 18 17 16 15 14 13 11 8 6 4 3 3 3 3 2 -2 -8 -9 1 9 6 -3 -14 7 22 28 25 16 8 3 0 -2 -4 -4 -0 10 15 15 9 6 4 4 4 2 1 -0 -2 -4 -6 -4 1 10
13 13 13 13 14 14 14 14 14 15 15 16 16 16 16 16 15 14 13 12 10 9 6 3 -2 -5 -5 -2 2 4 5 4 -0 -4 -5 0 2 -1 -5 -5 0 3 4 7 5 2 -1 -1 1 5 10 17 20 14 5 -3 -0 2 3 3 3 2 0 -1 -3 -2 2 12 21
16 16 16 16 16 16 16 16 16 16 16 15 15 14 14 13 13 11 10 9 8 5 1 -4 -9 -10 -7 2 11 16 16 11 6 1 -1 -1 -1 1 2 3 -4 -4 -1 4 1 -0 -1 1 3 6 10 14 12 6 0 -2 1 3 3 4 3 3 2 1 1 4 11 20 22
Height
5474 5476 5478 5481 5485 5488 5491 5493 5496 5498 5501 5504 5507 5510 5514 5519 5523 5528 5533 5538 5543 5548 5553 5558 5563 5568 5572 5577 5582 5587 5592 5597 5602 5608 5613 5617 5622 5626 5629 5633 5636 5639 5642 5644 5646 5649 5651 5653 5655 5656 5658 5659 5661 5664 5666 5669 5672 5676 5680 5683 5687 5691 5694 5697 5699 5702 5704 5706 5708
5469 5471 5474 5477 5481 5484 5487 5490 5493 5496 5498 5501 5504 5507 5511 5516 5520 5525 5530 5535 5539 5544 5550 5555 5560 5565 5570 5575 5579 5585 5590 5595 5600 5606 5611 5616 5620 5624 5628 5631 5634 5637 5640 5643 5645 5648 5650 5652 5654 5655 5656 5658 5660 5662 5665 5667 5671 5674 5678 5682 5685 5689 5692 5696 5698 5700 5702 5705 5706
5465 5467 5470 5473 5477 5481 5484 5488 5490 5493 5496 5498 5501 5505 5509 5513 5517 5522 5527 5532 5537 5542 5547 5553 5558 5563 5568 5572 5577 5583 5588 5593 5598 5604 5609 5614 5619 5623 5626 5630 5633 5636 5639 5642 5644 5646 5649 5651 5652 5654 5655 5657 5659 5661 5663 5666 5669 5673 5676 5680 5684 5688 5691 5694 5696 5699 5701 5703 5705
5461 5463 5466 5470 5474 5478 5481 5485 5488 5491 5493 5496 5499 5502 5506 5510 5515 5519 5524 5530 5535 5540 5545 5551 5556 5561 5566 5571 5575 5581 5586 5591 5597 5602 5607 5613 5617 5621 5625 5628 5632 5635 5638 5641 5643 5646 5648 5650 5651 5652 5653 5656 5657 5660 5662 5665 5668 5671 5675 5679 5683 5686 5690 5693 5695 5697 5699 5701 5703
5457 5460 5463 5467 5471 5475 5479 5482 5486 5489 5491 5494 5497 5501 5505 5508 5513 5517 5522 5528 5533 5538 5544 5549 5554 5559 5564 5569 5573 5579 5585 5590 5596 5601 5606 5611 5616 5620 5624 5627 5631 5634 5637 5640 5642 5644 5646 5648 5650 5651 5653 5655 5656 5658 5661 5664 5667 5671 5674 5678 5682 5685 5688 5691 5693 5695 5697 5699 5701
5455 5458 5461 5464 5468 5472 5476 5481 5484 5487 5490 5493 5496 5500 5503 5507 5511 5516 5521 5526 5531 5537 5543 5548 5553 5557 5562 5567 5573 5578 5583 5589 5594 5600 5606 5610 5615 5619 5623 5626 5630 5633 5636 5639 5641 5643 5645 5647 5649 5651 5652 5654 5656 5658 5660 5663 5666 5670 5674 5677 5681 5684 5686 5689 5691 5693 5696 5697 5700
5452 5456 5459 5462 5466 5471 5475 5479 5482 5486 5489 5492 5496 5499 5502 5506 5510 5515 5520 5525 5531 5536 5542 5547 5552 5556 5561 5566 5571 5576 5582 5588 5594 5599 5604 5609 5614 5618 5622 5625 5629 5632 5635 5638 5640 5642 5644 5646 5648 5650 5651 5653 5655 5657 5660 5662 5666 5669 5673 5676 5679 5682 5685 5687 5690 5692 5694 5696 5697
5451 5454 5458 5461 5465 5469 5473 5477 5481 5485 5489 5492 5495 5499 5502 5506 5510 5514 5519 5525 5530 5536 5541 5546 5551 5556 5560 5565 5571 5576 5582 5587 5593 5598 5604 5608 5613 5617 5621 5624 5628 5631 5634 5637 5639 5641 5643 5646 5647 5649 5651 5653 5655 5657 5659 5662 5665 5668 5671 5675 5678 5681 5683 5686 5688 5690 5692 5694 5695
5449 5453 5456 5460 5464 5468 5473 5477 5481 5485 5488 5492 5495 5498 5502 5506 5510 5514 5519 5525 5530 5536 5541 5546 5551 5555 5560 5565 5570 5575 5581 5587 5593 5598 5603 5608 5612 5616 5620 5624 5627 5631 5633 5636 5638 5641 5643 5645 5647 5649 5650 5652 5654 5656 5659 5661 5664 5667 5671 5674 5677 5679 5682 5684 5686 5689 5691 5692 5694
5448 5452 5456 5460 5463 5468 5472 5477 5481 5485 5489 5492 5496 5499 5502 5506 5510 5515 5520 5525 5531 5536 5541 5546 5551 5555 5560 5565 5569 5575 5581 5587 5592 5597 5602 5607 5612 5616 5620 5623 5627 5630 5633 5635 5638 5640 5642 5644 5646 5648 5650 5652 5654 5656 5658 5661 5664 5667 5671 5673 5676 5678 5681 5683 5686 5687 5689 5691 5693
5448 5452 5455 5459 5463 5468 5473 5478 5482 5486 5489 5493 5496 5500 5503 5506 5511 5515 5520 5526 5531 5536 5541 5546 5551 5556 5560 5564 5569 5575 5581 5586 5592 5597 5602 5607 5611 5615 5619 5623 5626 5630 5632 5635 5637 5639 5641 5644 5646 5648 5650 5651 5653 5656 5658 5661 5664 5667 5670 5672 5675 5677 5680 5682 5684 5686 5688 5691 5692
5449 5452 5456 5459 5464 5468 5474 5479 5483 5487 5490 5494 5497 5501 5504 5507 5511 5516 5521 5526 5532 5537 5542 5546 5551 5556 5560 5564 5569 5575 5581 5586 5591 5596 5602 5606 5611 5615 5619 5622 5626 5629 5632 5634 5636 5638 5641 5643 5645 5647 5649 5651 5653 5655 5658 5660 5664 5666 5669 5672 5674 5676 5679 5681 5683 5685 5687 5689 5691
5451 5454 5457 5461 5465 5470 5475 5480 5484 5487 5491 5495 5498 5501 5505 5508 5513 5517 5522 5528 5533 5538 5542 5547 5551 5556 5560 5564 5569 5575 5580 5586 5591 5596 5601 5606 5611 5615 5618 5622 5625 5628 5631 5633 5636 5638 5640 5642 5645 5647 5649 5651 5653 5656 5658 5660 5663 5666 5668 5671 5673 5676 5678 5681 5683 5684 5686 5687 5689
5452 5455 5458 5462 5466 5471 5475 5480 5484 5488 5492 5496 5500 5503 5506 5510 5515 5519 5524 5529 5534 5539 5543 5548 5552 5556 5560 5564 5570 5575 5581 5586 5592 5597 5602 5606 5611 5615 5618 5621 5625 5627 5630 5632 5635 5637 5640 5642 5644 5646 5648 5651 5653 5656 5659 5661 5662 5665 5667 5670 5673 5676 5678 5680 5682 5683 5685 5686 5688
5455 5457 5460 5463 5467 5471 5476 5481 5485 5489 5494 5498 5501 5505 5508 5512 5517 5521 5526 5531 5536 5541 5545 5549 5552 5556 5561 5565 5571 5576 5581 5587 5592 5597 5602 5606 5611 5615 5618 5621 5624 5627 5630 5632 5635 5637 5639 5641 5644 5646 5648 5651 5653 5655 5658 5661 5662 5664 5667 5670 5673 5676 5678 5680 5681 5682 5684 5686 5687
5458 5461 5463 5466 5469 5473 5478 5482 5487 5491 5496 5500 5503 5507 5511 5515 5519 5524 5529 5533 5538 5542 5546 5550 5554 5558 5562 5567 5573 5578 5583 5588 5593 5598 5603 5607 5611 5615 5618 5621 5624 5626 5629 5632 5635 5637 5639 5641 5643 5645 5647 5650 5651 5654 5656 5659 5661 5664 5666 5669 5672 5675 5677 5679 5681 5682 5683 5685 5686
5463 5465 5467 5470 5473 5477 5481 5486 5490 5495 5498 5502 5506 5510 5513 5518 5522 5527 5531 5536 5540 5544 5548 5552 5556 5560 5565 5570 5575 5579 5584 5589 5594 5599 5603 5607 5611 5615 5618 5621 5624 5626 5629 5632 5635 5637 5639 5641 5643 5645 5646 5648 5650 5653 5656 5658 5661 5663 5666 5669 5671 5674 5676 5678 5680 5681 5683 5685 5686
5469 5471 5473 5476 5479 5483 5486 5491 5494 5498 5501 5505 5509 5513 5517 5521 5526 5530 5534 5538 5542 5546 5551 5555 5559 5563 5568 5572 5576 5581 5586 5591 5596 5600 5604 5608 5611 5615 5618 5621 5624 5626 5629 5632 5634 5636 5639 5641 5642 5644 5645 5647 5649 5652 5655 5658 5661 5663 5666 5668 5671 5673 5675 5677 5679 5681 5683 5684 5686
5476 5478 5481 5483 5486 5489 5492 5495 5498 5502 5505 5509 5512 5516 5521 5525 5530 5533 5537 5541 5545 5549 5553 5557 5561 5566 5570 5574 5579 5583 5588 5593 5597 5601 5605 5609 5612 5615 5618 5621 5624 5627 5630 5632 5634 5636 5638 5640 5642 5643 5645 5647 5649 5652 5655 5658 5660 5663 5666 5668 5671 5673 5675 5677 5679 5681 5682 5684 5685
5484 5486 5488 5490 5492 5494 5497 5500 5503 5506 5510 5513 5517 5521 5525 5529 5533 5536 5540 5544 5548 5551 5555 5559 5564 5568 5572 5576 5581 5586 5591 5595 5599 5602 5606 5609 5612 5616 5619 5621 5625 5627 5630 5632 5634 5636 5638 5640 5641 5643 5646 5647 5650 5652 5655 5657 5660 5663 5666 5669 5671 5674 5676 5677 5679 5681 5682 5683 5685
5491 5492 5494 5495 5497 5500 5502 5505 5508 5511 5514 5518 5521 5526 5529 5532 5536 5540 5543 5547 5550 5554 5558 5562 5566 5570 5574 5579 5584 5588 5592 5596 5600 5603 5606 5610 5613 5616 5619 5622 5625 5627 5630 5632 5634 5636 5638 5640 5641 5644 5646 5647 5650 5652 5655 5658 5661 5664 5667 5670 5672 5674 5676 5677 5679 5680 5681 5683 5684
5497 5498 5500 5501 5503 5506 5508 5510 5513 5516 5519 5522 5526 5529 5532 5536 5540 5543 5547 5551 5555 5558 5561 5564 5568 5572 5577 5582 5586 5590 5594 5597 5601 5604 5608 5611 5614 5617 5620 5623 5626 5628 5630 5632 5634 5636 5638 5640 5642 5644 5646 5648 5650 5653 5656 5659 5662 5665 5668 5671 5673 5674 5676 5677 5679 5680 5681 5682 5683
5504 5504 5505 5507 5509 5511 5513 5516 5518 5521 5524 5527 5530 5533 5537 5540 5543 5547 5552 5556 5558 5560 5563 5567 5571 5576 5580 5584 5588 5592 5596 5599 5603 5606 5610 5613 5616 5619 5621 5624 5626 5628 5630 5632 5634 5636 5638 5640 5642 5644 5646 5649 5651 5654 5657 5660 5663 5666 5668 5671 5672 5674 5676 5677 5678 5680 5681 5682 5683
5509 5510 5511 5513 5515 5517 5519 5521 5524 5526 5529 5532 5535 5538 5541 5543 5547 5552 5555 5557 5560 5563 5566 5571 5575 5579 5583 5587 5591 5594 5598 5602 5606 5609 5611 5615 5617 5620 5622 5624 5626 5629 5631 5633 5634 5636 5638 5641 5642 5645 5647 5650 5653 5656 5658 5661 5664 5666 5669 5671 5672 5674 5675 5676 5678 5679 5680 5681 5682
5514 5515 5516 5518 5520 5522 5524 5526 5529 5531 5534 5536 5539 5541 5545 5548 5551 5555 5557 5559 5563 5566 5570 5574 5578 5582 5586 5589 5593 5597 5601 5604 5608 5611 5614 5616 5618 5621 5623 5625 5627 5630 5631 5633 5635 5637 5640 5641 5644 5646 5648 5651 5654 5656 5659 5662 5664 5666 5669 5671 5672 5674 5675 5676 5677 5678 5680 5681 5682
5519 5520 5521 5523 5525 5527 5529 5531 5534 5536 5538 5541 5543 5546 5549 5552 5555 5557 5561 5564 5567 5571 5574 5578 5581 5585 5589 5592 5596 5600 5603 5606 5609 5612 5615 5617 5620 5622 5624 5626 5628 5631 5633 5635 5637 5639 5641 5643 5645 5647 5649 5652 5655 5657 5660 5662 5665 5667 5669 5671 5672 5674 5675 5676 5677 5678 5679 5680 5681
5525 5526 5527 5529 5531 5532 5534 5536 5538 5541 5544 5546 5549 5551 5553 5556 5559 5562 5566 5569 5572 5575 5578 5582 5585 5589 5592 5596 5599 5602 5605 5608 5611 5613 5616 5618 5621 5623 5626 5628 5630 5632 5634 5636 5638 5640 5642 5644 5646 5648 5650 5652 5655 5657 5660 5663 5665 5667 5669 5671 5672 5673 5674 5675 5676 5677 5678 5679 5680
5530 5531 5533 5535 5537 5538 5540 5542 5545 5548 5550 5552 5553 5556 5558 5561 5564 5567 5571 5574 5577 5580 5583 5586 5589 5592 5595 5598 5601 5604 5607 5610 5612 5615 5617 5620 5622 5625 5627 5629 5631 5634 5636 5638 5640 5641 5643 5645 5647 5649 5651 5653 5656 5658 5661 5663 5665 5667 5669 5670 5671 5672 5673 5674 5676 5676 5677 5678 5679
5536 5537 5538 5540 5542 5544 5546 5549 5551 5552 5554 5556 5558 5561 5564 5567 5570 5573 5576 5578 5581 5584 5587 5590 5592 5595 5598 5601 5604 5606 5609 5611 5614 5616 5619 5621 5624 5626 5629 5631 5634 5636 5638 5640 5642 5644 5646 5646 5648 5650 5652 5655 5657 5659 5661 5663 5665 5667 5668 5670 5671 5672 5673 5674 5674 5675 5676 5677 5678
5542 5543 5545 5546 5547 5549 5551 5553 5555 5557 5559 5561 5563 5566 5569 5572 5575 5577 5580 5582 5585 5588 5591 5593 5596 5598 5601 5604 5606 5608 5611 5613 5616 5619 5621 5624 5626 5629 5631 5634 5636 5638 5640 5641 5644 5646 5647 5648 5649 5651 5653 5656 5658 5660 5661 5663 5665 5666 5667 5669 5671 5672 5672 5672 5673 5674 5676 5676 5677
5550 5550 5551 5552 5554 5556 5557 5559 5561 5562 5564 5566 5569 5571 5574 5576 5579 5581 5584 5586 5589 5591 5594 5596 5599 5601 5604 5606 5608 5611 5613 5616 5618 5621 5624 5626 5629 5631 5633 5635 5636 5638 5640 5642 5644 5646 5647 5649 5651 5653 5655 5656 5658 5660 5661 5663 5664 5666 5667 5669 5670 5670 5671 5671 5673 5674 5675 5676 5676
5557 5557 5558 5559 5561 5562 5564 5565 5566 5568 5570 5572 5574 5576 5578 5581 5583 5585 5587 5590 5592 5595 5597 5599 5601 5604 5606 5608 5611 5613 5616 5618 5621 5623 5626 5629 5631 5633 5635 5636 5637 5639 5641 5643 5645 5646 5648 5650 5652 5654 5656 5657 5659 5660 5662 5663 5664 5665 5666 5667 5668 5669 5671 5672 5673 5674 5675 5675 5676
5563 5564 5565 5566 5567 5568 5570 5571 5573 5574 5576 5577 5579 5581 5583 5585 5587 5589 5591 5593 5595 5597 5600 5602 5604 5606 5608 5611 5613 5616 5618 5621 5623 5626 5628 5630 5632 5634 5636 5638 5639 5640 5641 5643 5645 5647 5649 5651 5653 5655 5656 5658 5659 5661 5662 5663 5664 5665 5666 5667 5668 5670 5671 5671 5672 5673 5674 5675 5675
5570 5570 5571 5572 5573 5574 5575 5576 5578 5579 5581 5582 5584 5585 5587 5588 5590 5592 5594 5596 5599 5601 5604 5606 5608 5610 5611 5613 5615 5618 5621 5623 5625 5628 5630 5631 5633 5636 5639 5641 5641 5641 5643 5645 5646 5649 5651 5653 5654 5655 5657 5658 5660 5661 5662 5663 5664 5664 5665 5666 5667 5669 5671 5671 5672 5672 5672 5672 5672
5575 5576 5576 5577 5578 5579 5580 5581 5582 5583 5584 5586 5587 5589 5590 5592 5594 5596 5597 5600 5602 5605 5607 5609 5610 5612 5614 5616 5618 5621 5623 5626 5628 5630 5631 5633 5636 5640 5641 5641 5641 5642 5644 5646 5648 5650 5652 5654 5654 5656 5657 5658 5660 5661 5661 5662 5662 5663 5665 5666 5668 5669 5670 5670 5670 5670 5671 5671 5671
5579 5580 5581 5581 5582 5583 5584 5585 5586 5587 5588 5589 5591 5592 5594 5595 5597 5599 5601 5602 5605 5607 5609 5611 5612 5614 5617 5619 5621 5623 5626 5628 5630 5631 5634 5636 5639 5641 5642 5642 5643 5644 5646 5647 5649 5651 5654 5654 5655 5656 5657 5658 5659 5659 5660 5661 5662 5664 5666 5667 5668 5668 5669 5669 5669 5669 5670 5670 5671
5583 5584 5585 5585 5586 5586 5587 5588 5589 5590 5591 5592 5594 5595 5597 5598 5600 5602 5604 5606 5608 5610 5612 5613 5615 5617 5619 5621 5624 5626 5628 5630 5632 5634 5636 5639 5641 5642 5643 5643 5644 5646 5647 5649 5651 5652 5653 5653 5655 5656 5656 5657 5658 5659 5660 5661 5663 5665 5666 5666 5667 5667 5667 5668 5668 5669 5669 5670 5670
5586 5587 5588 5588 5589 5590 5591 5591 5592 5593 5594 5596 5597 5598 5600 5601 5603 5605 5607 5609 5611 5613 5615 5616 5618 5620 5622 5624 5626 5629 5631 5633 5635 5637 5638 5640 5641 5642 5643 5643 5645 5646 5648 5649 5651 5651 5652 5654 5655 5656 5656 5657 5658 5659 5660 5661 5663 5664 5665 5665 5666 5666 5667 5667 5668 5668 5669 5669 5669
5590 5590 5591 5591 5592 5593 5594 5594 5595 5596 5597 5598 5600 5601 5603 5604 5606 5608 5610 5612 5614 5616 5617 5619 5621 5623 5625 5627 5629 5631 5633 5634 5636 5638 5639 5640 5641 5641 5643 5644 5645 5647 5648 5649 5650 5651 5653 5654 5655 5656 5656 5657 5658 5659 5660 5661 5662 5663 5664 5665 5665 5666 5666 5667 5667 5668 5668 5668 5668
5592 5593 5594 5594 5595 5596 5597 5597 5598 5599 5600 5601 5602 5604 5605 5607 5608 5610 5611 5613 5615 5617 5619 5621 5623 5625 5627 5629 5631 5633 5634 5635 5636 5638 5639 5640 5641 5643 5644 5646 5647 5648 5649 5651 5651 5652 5654 5655 5656 5656 5657 5657 5658 5659 5660 5661 5662 5663 5664 5665 5665 5666 5666 5667 5667 5667 5667 5667 5667
5596 5596 5597 5597 5598 5599 5600 5601 5601 5602 5603 5605 5606 5607 5608 5609 5610 5611 5612 5614 5616 5617 5619 5621 5624 5626 5629 5630 5631 5633 5634 5636 5637 5638 5640 5641 5643 5645 5646 5647 5648 5649 5651 5651 5652 5653 5654 5655 5656 5656 5657 5658 5659 5660 5661 5661 5662 5663 5664 5665 5665 5666 5666 5667 5667 5667 5666 5666 5666